Snowfall_Accumulation
0.0 0.0 0.0 0.0 0.0 0.0 0.0 0.0 0.0 0.1 0.1 0.0 0.0 0.0 0.0 0.0 0.0 0.0 0.0 nan nan nan nan nan nan nan nan nan nan nan nan nan nan nan nan nan nan nan
0.0 0.0 0.0 0.0 0.0 0.0 0.0 0.0 0.0 0.0 0.0 0.0 0.0 0.0 0.0 0.0 0.0 0.0 0.0 nan nan nan nan nan nan nan nan nan nan nan nan nan nan nan nan nan nan nan
0.0 0.0 0.0 0.0 0.0 0.0 0.0 0.0 0.0 0.0 0.0 0.0 0.0 0.0 0.0 0.0 0.0 0.0 0.0 0.0 0.0 nan nan nan nan nan nan nan nan nan nan nan nan nan nan nan nan nan
0.0 0.0 0.0 0.0 0.0 0.0 0.0 0.0 0.0 0.0 0.0 0.0 0.0 0.1 0.0 0.0 0.0 0.0 0.0 0.0 0.0 nan nan nan nan nan nan nan nan nan nan nan nan nan nan nan nan nan
0.0 0.0 0.0 0.0 0.0 0.0 0.0 0.0 0.0 0.0 0.0 0.0 0.2 0.1 0.2 0.0 0.0 0.0 0.0 0.0 0.0 nan nan nan nan nan nan nan nan nan nan nan nan nan nan nan nan nan
0.0 0.0 0.0 0.0 0.0 0.0 0.0 0.0 0.0 0.0 0.0 0.1 0.2 0.4 0.3 0.2 0.0 0.1 0.1 0.0 0.0 0.0 nan nan nan nan nan nan nan nan nan nan nan nan nan nan nan nan
0.0 0.0 0.0 nan nan nan 0.0 0.0 0.0 0.0 0.1 0.3 0.4 0.7 1.0 0.8 0.3 0.2 0.1 0.0 0.0 0.0 0.0 0.0 0.0 0.0 0.0 nan nan nan nan nan nan nan nan nan nan nan
0.0 0.0 0.0 0.0 0.0 nan nan nan nan 0.0 0.0 0.3 0.4 0.3 0.1 0.0 0.0 0.1 0.3 0.4 0.8 0.0 0.0 0.1 0.0 0.0 0.0 0.0 nan nan nan nan nan nan nan nan nan nan
0.0 0.0 0.0 0.0 nan 0.0 nan nan nan nan 0.0 0.0 0.0 0.1 0.1 0.0 0.0 0.1 0.0 0.0 0.3 0.1 0.0 0.5 0.0 0.1 0.0 0.0 nan nan nan nan nan nan nan nan nan nan
0.0 0.0 0.0 0.0 0.0 0.0 0.0 0.0 0.0 0.0 0.0 0.0 0.0 0.0 0.0 0.0 0.0 0.0 0.0 0.1 0.2 0.2 0.0 2.0 0.4 0.5 0.1 0.0 nan nan nan nan nan nan nan nan nan nan
0.0 0.0 0.0 0.0 nan nan 0.1 0.1 0.2 0.1 nan nan nan nan nan nan nan 0.2 0.9 0.7 2.0 1.3 0.5 1.2 1.7 2.0 1.1 0.3 0.0 nan nan nan nan nan nan nan nan nan
0.0 0.0 nan 0.0 nan nan 0.1 0.1 0.2 0.2 0.3 0.2 0.1 0.0 nan nan nan 0.0 0.3 0.8 1.2 1.6 0.8 1.5 1.8 1.8 4.1 2.6 0.2 0.1 0.0 nan nan nan nan nan nan 0.0
0.2 0.2 0.2 nan nan nan nan 0.0 0.1 0.1 0.1 0.2 0.3 0.8 0.4 0.2 0.3 0.2 0.0 0.3 0.7 0.9 0.5 0.5 1.6 1.6 1.3 2.9 2.2 0.4 0.1 0.2 0.1 0.0 nan nan nan 0.0
0.2 0.5 0.5 nan nan nan 0.3 nan nan 0.1 0.7 0.8 1.1 1.7 1.3 1.2 0.6 0.4 0.0 0.1 0.3 0.1 0.1 0.0 1.0 0.7 1.0 1.8 3.3 1.9 1.1 0.3 0.3 0.4 0.2 nan nan nan
0.7 0.9 nan nan nan 0.0 nan nan 1.0 1.4 2.2 3.3 2.5 2.0 0.9 0.4 0.1 0.2 0.0 0.0 0.0 0.0 0.0 0.0 0.5 0.1 0.5 1.0 2.3 2.7 3.4 2.8 0.6 0.5 0.5 0.4 0.3 0.2
0.7 3.4 1.6 2.1 1.1 2.0 3.1 2.7 1.8 1.7 1.9 1.5 1.5 0.9 0.5 0.6 0.5 0.3 0.6 0.7 1.1 1.9 0.2 0.1 0.1 0.0 1.2 0.6 0.6 2.3 1.3 3.7 2.1 1.0 0.8 0.6 0.4 0.3
4.0 5.6 5.8 4.8 4.0 2.7 2.3 2.2 1.4 1.1 1.5 1.6 1.8 1.9 1.4 1.1 1.2 0.4 0.5 0.9 1.2 1.3 1.7 1.4 0.7 0.3 0.6 0.2 3.8 1.6 2.3 1.6 1.3 1.3 0.9 1.1 0.5 0.4
4.2 4.6 6.1 5.4 3.9 2.8 2.7 2.4 2.2 2.3 1.7 1.9 2.5 1.8 2.0 2.3 2.1 1.6 1.0 1.3 1.5 1.5 1.5 1.2 1.2 2.6 2.3 2.5 0.5 2.4 2.1 2.8 2.5 1.0 0.7 1.4 1.9 0.8
5.4 5.4 6.2 6.1 4.2 2.6 2.5 2.6 3.2 2.6 1.8 2.7 3.0 3.4 3.7 3.7 4.5 3.1 2.6 1.7 1.8 1.4 1.5 1.2 1.3 1.1 2.6 4.7 3.7 nan 3.2 3.6 4.0 5.1 2.2 1.2 1.6 1.6
3.8 4.4 4.9 4.3 3.5 3.4 3.5 3.3 3.3 4.3 4.4 4.2 4.2 4.6 5.1 4.1 5.4 4.5 2.8 2.9 1.9 1.7 1.8 1.5 1.6 1.4 1.9 3.3 6.2 4.6 nan 2.2 1.7 4.2 6.7 4.4 2.1 nan
3.0 3.2 3.2 2.6 2.9 2.6 3.9 4.6 5.7 5.9 5.9 7.5 5.8 6.3 9.2 3.5 5.3 3.8 3.0 1.6 1.4 1.6 2.4 2.1 1.1 0.0 0.7 1.1 12.5 6.4 7.8 nan 0.5 1.2 2.1 3.0 3.1 2.8
2.3 2.1 2.0 1.8 2.1 2.3 3.8 6.3 6.5 7.1 6.0 5.4 8.0 10.3 9.5 5.0 5.5 5.3 4.9 4.5 2.5 2.0 1.9 1.9 1.3 1.2 2.2 1.8 3.5 6.3 4.7 8.0 nan nan nan nan 2.3 5.1
2.9 1.9 2.2 2.5 2.5 2.8 2.0 3.7 2.7 7.5 3.9 4.1 4.4 4.8 16.0 8.7 3.9 3.5 3.7 3.0 2.2 3.1 2.6 3.5 2.6 2.2 2.4 2.1 2.4 4.9 3.2 5.9 6.5 9.0 8.3 nan nan nan
Water_Equivalent
0.00 0.00 0.00 0.00 0.00 0.00 0.00 0.00 0.00 0.05 0.03 0.00 0.00 0.00 0.00 0.00 0.00 0.00 0.00 nan nan nan nan nan nan nan nan nan nan nan nan nan nan nan nan nan nan nan
0.00 0.00 0.00 0.00 0.00 0.00 0.00 0.00 0.00 0.00 0.00 0.00 0.00 0.00 0.00 0.00 0.00 0.00 0.00 nan nan nan nan nan nan nan nan nan nan nan nan nan nan nan nan nan nan nan
0.00 0.00 0.00 0.00 0.00 0.00 0.00 0.00 0.00 0.00 0.00 0.00 0.00 0.00 0.00 0.00 0.00 0.00 0.00 0.00 0.00 nan nan nan nan nan nan nan nan nan nan nan nan nan nan nan nan nan
0.00 0.00 0.00 0.00 0.00 0.00 0.00 0.00 0.00 0.00 0.00 0.00 0.00 0.05 0.00 0.00 0.00 0.00 0.00 0.00 0.00 nan nan nan nan nan nan nan nan nan nan nan nan nan nan nan nan nan
0.00 0.00 0.00 0.00 0.00 0.00 0.00 0.00 0.00 0.00 0.00 0.00 0.08 0.05 0.06 0.01 0.01 0.00 0.00 0.00 0.00 nan nan nan nan nan nan nan nan nan nan nan nan nan nan nan nan nan
0.00 0.00 0.00 0.00 0.00 0.00 0.00 0.00 0.00 0.00 0.00 0.04 0.10 0.16 0.10 0.09 0.00 0.02 0.04 0.00 0.00 0.00 nan nan nan nan nan nan nan nan nan nan nan nan nan nan nan nan
0.00 0.00 0.00 nan nan nan 0.00 0.00 0.00 0.00 0.04 0.09 0.14 0.24 0.36 0.29 0.11 0.06 0.03 0.01 0.01 0.00 0.00 0.00 0.00 0.00 0.00 nan nan nan nan nan nan nan nan nan nan nan
0.00 0.00 0.00 0.00 0.00 nan nan nan nan 0.00 0.01 0.10 0.12 0.08 0.02 0.01 0.00 0.03 0.09 0.15 0.25 0.00 0.00 0.03 0.00 0.00 0.00 0.00 nan nan nan nan nan nan nan nan nan nan
0.00 0.00 0.00 0.00 nan 0.00 nan nan nan nan 0.00 0.00 0.00 0.03 0.02 0.00 0.00 0.02 0.00 0.00 0.08 0.02 0.00 0.17 0.00 0.03 0.00 0.00 nan nan nan nan nan nan nan nan nan nan
0.01 0.01 0.01 0.01 0.00 0.01 0.01 0.01 0.00 0.00 0.00 0.00 0.00 0.00 0.00 0.00 0.00 0.00 0.00 0.03 0.06 0.07 0.01 0.55 0.14 0.17 0.03 0.00 nan nan nan nan nan nan nan nan nan nan
0.01 0.02 0.01 0.02 nan nan 0.03 0.05 0.07 0.05 nan nan nan nan nan nan nan 0.08 0.27 0.20 0.51 0.36 0.18 0.35 0.51 0.61 0.37 0.10 0.00 nan nan nan nan nan nan nan nan nan
0.00 0.00 nan 0.00 nan nan 0.02 0.03 0.07 0.06 0.10 0.07 0.03 0.01 nan nan nan 0.00 0.10 0.26 0.34 0.42 0.26 0.38 0.48 0.47 0.96 0.77 0.08 0.02 0.01 nan nan nan nan nan nan 0.00
0.08 0.08 0.06 nan nan nan nan 0.01 0.03 0.03 0.05 0.09 0.12 0.33 0.17 0.09 0.12 0.08 0.02 0.10 0.22 0.27 0.18 0.20 0.44 0.44 0.37 0.72 0.61 0.14 0.05 0.07 0.03 0.01 nan nan nan 0.00
0.08 0.18 0.19 nan nan nan 0.14 nan nan 0.05 0.27 0.33 0.43 0.58 0.47 0.44 0.24 0.17 0.01 0.05 0.10 0.04 0.04 0.00 0.33 0.25 0.31 0.47 0.77 0.58 0.35 0.13 0.10 0.14 0.09 nan nan nan
0.28 0.37 nan nan nan 0.00 nan nan 0.34 0.57 0.85 1.17 0.83 0.64 0.31 0.17 0.04 0.07 0.00 0.00 0.01 0.01 0.00 0.02 0.18 0.04 0.19 0.30 0.58 0.72 0.99 0.89 0.21 0.20 0.18 0.16 0.13 0.09
0.26 1.34 0.54 0.80 0.37 0.70 1.15 1.06 0.70 0.68 0.70 0.54 0.46 0.30 0.20 0.20 0.20 0.12 0.24 0.21 0.29 0.46 0.04 0.02 0.02 0.01 0.34 0.20 0.19 0.56 0.36 1.02 0.70 0.31 0.26 0.22 0.17 0.12
1.39 2.05 1.99 1.53 1.19 0.80 0.66 0.67 0.43 0.35 0.49 0.51 0.58 0.57 0.43 0.35 0.37 0.15 0.16 0.23 0.32 0.30 0.37 0.36 0.17 0.07 0.16 0.05 0.86 0.39 0.53 0.44 0.39 0.36 0.26 0.31 0.16 0.14
1.27 1.33 1.71 1.63 1.09 0.75 0.73 0.64 0.56 0.68 0.50 0.56 0.79 0.58 0.60 0.63 0.57 0.45 0.31 0.34 0.37 0.36 0.32 0.27 0.30 0.59 0.53 0.58 0.16 0.53 0.50 0.68 0.69 0.28 0.20 0.38 0.45 0.22
1.60 1.54 1.83 1.92 1.20 0.71 0.68 0.70 0.82 0.72 0.44 0.78 0.89 1.06 1.10 1.02 1.24 0.79 0.69 0.45 0.44 0.34 0.36 0.31 0.33 0.31 0.58 0.92 0.79 nan 0.69 0.75 0.98 1.32 0.62 0.33 0.41 0.39
1.02 1.19 1.45 1.30 1.01 0.91 0.93 0.89 0.85 1.13 1.18 1.17 1.23 1.42 1.59 1.17 1.38 1.06 0.72 0.74 0.49 0.43 0.42 0.36 0.38 0.35 0.45 0.73 1.50 0.96 nan 0.57 0.47 0.96 1.34 0.94 0.47 nan
0.73 0.79 0.84 0.71 0.79 0.73 1.19 1.39 1.73 1.66 1.76 2.33 1.72 1.92 3.06 1.01 1.38 1.01 0.80 0.50 0.42 0.39 0.51 0.48 0.31 0.01 0.24 0.33 3.08 1.50 1.61 nan 0.13 0.28 0.51 0.69 0.64 0.58
0.57 0.49 0.49 0.47 0.57 0.62 1.15 2.09 1.94 2.03 1.59 1.48 2.41 3.33 3.07 1.45 1.53 1.40 1.38 1.18 0.61 0.51 0.46 0.47 0.34 0.33 0.53 0.42 0.70 1.52 0.94 1.54 nan nan nan nan 0.51 0.96
0.73 0.45 0.56 0.65 0.64 0.76 0.50 1.00 0.68 2.40 1.01 1.11 1.13 1.28 5.39 2.11 1.06 0.99 1.03 0.79 0.55 0.72 0.59 0.72 0.58 0.51 0.56 0.46 0.49 0.95 0.64 1.23 1.25 1.65 1.55 nan nan nan
SL_Ratio
nan nan nan nan nan nan nan nan nan 2.6 2.5 nan nan nan nan nan nan nan nan nan nan nan nan nan nan nan nan nan nan nan nan nan nan nan nan nan nan nan
nan nan nan nan nan nan nan nan nan nan nan nan nan nan nan nan nan nan nan nan nan nan nan nan nan nan nan nan nan nan nan nan nan nan nan nan nan nan
nan nan nan nan nan nan nan nan nan nan nan nan nan nan nan nan nan nan nan nan nan nan nan nan nan nan nan nan nan nan nan nan nan nan nan nan nan nan
nan nan nan nan nan nan nan nan nan nan nan nan 2.0 2.5 2.7 nan nan nan nan nan nan nan nan nan nan nan nan nan nan nan nan nan nan nan nan nan nan nan
nan nan nan nan nan nan nan nan nan nan nan nan 2.7 2.5 2.6 2.9 2.8 nan nan nan nan nan nan nan nan nan nan nan nan nan nan nan nan nan nan nan nan nan
nan nan nan nan nan nan nan nan nan nan nan 2.5 2.5 2.7 2.7 2.6 nan 2.8 2.8 nan 3.3 nan nan nan nan nan nan nan nan nan nan nan nan nan nan nan nan nan
nan nan nan nan nan nan nan nan nan nan 2.6 2.8 2.9 3.0 2.9 2.9 2.8 2.8 2.7 2.8 3.3 nan nan nan nan nan nan nan nan nan nan nan nan nan nan nan nan nan
nan nan nan nan nan nan nan nan nan nan 2.5 2.9 3.1 3.2 3.2 3.3 3.1 2.9 2.8 2.9 3.3 2.5 nan 2.8 nan nan nan nan nan nan nan nan nan nan nan nan nan nan
1.7 nan nan nan nan nan nan nan nan nan 3.3 nan 2.9 3.0 3.2 3.1 5.0 3.1 3.1 nan 3.2 2.7 nan 2.9 2.7 2.7 nan nan nan nan nan nan nan nan nan nan nan nan
2.3 2.6 2.3 2.6 2.9 2.6 2.4 2.6 2.2 nan 2.5 nan nan nan nan nan nan nan nan 2.9 2.9 2.6 2.6 3.6 2.5 2.8 2.5 nan nan nan nan nan nan nan nan nan nan nan
2.6 2.4 2.6 2.6 nan nan 2.6 2.7 2.6 2.6 nan nan nan nan nan nan nan 2.8 3.1 3.2 3.8 3.6 2.8 3.4 3.3 3.3 3.0 2.7 2.5 nan nan nan nan nan nan nan nan nan
nan nan nan nan nan nan 2.5 2.7 2.9 2.9 2.6 2.5 2.5 2.4 nan nan nan nan 2.7 3.2 3.4 3.8 3.1 4.1 3.8 3.7 4.3 3.4 2.8 2.5 2.4 nan nan nan nan nan nan nan
2.5 2.5 2.5 nan nan nan nan 2.5 2.8 2.7 2.7 2.6 2.5 2.5 2.5 2.6 2.5 2.5 2.4 2.5 3.0 3.2 2.5 2.6 3.6 3.6 3.5 4.1 3.6 2.9 2.5 2.5 2.5 2.5 nan nan nan nan
2.5 2.5 2.5 nan nan nan 2.5 nan nan 2.5 2.5 2.5 2.5 3.0 2.9 2.9 2.5 2.5 2.6 2.5 2.5 2.5 2.5 2.5 2.9 2.9 3.2 3.9 4.3 3.2 3.0 2.5 2.5 2.6 2.6 nan nan nan
2.5 2.5 nan nan nan nan nan nan 3.0 2.5 2.5 2.8 3.0 3.1 2.7 2.6 2.6 2.5 2.5 nan 2.4 3.2 2.5 2.5 2.5 3.2 2.8 3.2 3.9 3.7 3.4 3.1 2.7 2.7 2.9 2.5 2.5 2.5
2.6 2.5 3.0 2.6 3.0 2.8 2.7 2.6 2.5 2.5 2.7 2.8 3.2 2.9 2.7 2.7 2.7 2.5 2.7 3.3 3.7 4.2 4.1 4.2 3.9 3.7 3.6 3.2 3.1 4.2 3.7 3.6 3.0 3.2 3.0 2.6 2.5 2.5
2.8 2.7 2.9 3.1 3.4 3.4 3.5 3.4 3.3 3.1 3.1 3.0 3.1 3.3 3.2 3.1 3.2 2.7 2.9 3.7 3.9 4.5 4.5 4.0 4.2 4.1 3.5 3.7 4.5 4.1 4.3 3.7 3.2 3.6 3.4 3.6 3.5 2.5
3.3 3.4 3.5 3.3 3.6 3.7 3.7 3.7 3.9 3.4 3.5 3.3 3.2 3.1 3.4 3.6 3.6 3.5 3.3 3.7 4.0 4.2 4.5 4.3 4.0 4.5 4.3 4.3 3.0 4.5 4.3 4.0 3.6 3.6 3.3 3.6 4.3 3.8
3.4 3.5 3.4 3.2 3.5 3.6 3.7 3.8 3.9 3.6 4.0 3.5 3.4 3.3 3.3 3.6 3.7 3.9 3.8 3.8 4.1 4.1 4.2 3.9 3.9 3.4 4.5 5.1 4.7 nan 4.6 4.7 4.1 3.9 3.6 3.5 3.8 4.1
3.7 3.7 3.4 3.3 3.4 3.7 3.7 3.7 3.9 3.8 3.7 3.6 3.4 3.2 3.2 3.5 3.9 4.2 4.0 3.9 4.0 4.0 4.2 4.2 4.1 3.9 4.3 4.5 4.1 4.8 nan 3.9 3.7 4.4 5.0 4.7 4.4 nan
4.1 4.1 3.8 3.7 3.7 3.6 3.3 3.4 3.3 3.5 3.3 3.2 3.4 3.3 3.0 3.5 3.9 3.8 3.7 3.2 3.4 4.1 4.6 4.5 3.4 2.9 3.1 3.4 4.1 4.3 4.9 nan 3.6 4.3 4.2 4.3 4.8 4.8
4.1 4.2 4.0 3.9 3.7 3.8 3.3 3.0 3.3 3.5 3.8 3.7 3.3 3.1 3.1 3.5 3.6 3.8 3.6 3.8 4.1 3.9 4.1 4.1 3.7 3.6 4.1 4.4 5.0 4.2 5.0 5.2 nan nan nan nan 4.5 5.3
4.0 4.2 4.0 3.8 3.9 3.7 4.0 3.7 4.0 3.1 3.8 3.7 3.9 3.8 3.0 4.1 3.7 3.6 3.6 3.8 4.0 4.4 4.4 4.8 4.5 4.3 4.4 4.6 4.9 5.1 5.1 4.8 5.2 5.5 5.4 nan nan nan